[[{"header":{"parameterUnit":"m.s-1","parameterCategory":1,"la1":30.2991,"la2":30.254,"lo1":-89.0895,"lo2":-89.0444,"dy":0.0017,"dx":0.0017,"nx":28,"ny":28,"refTime":"2023-10-19T09:00:00:Z","depth":0,"parameterNumber":2,"parameterNumberName":"U-component_of_WINDS"},"data":[0,0,0,0,0,0,0,0,0,0,0,0,0,0,0,0,0,0,0,0,0,0,0,0,0,0,0,0,0,0,0,0,0,0,0,0,0,0,0,0,0,0,0,0,0,0,0,0,0,0,0,0,0,0,0,0,0,0,0.2069,0.2069,0,0.2066,0.2066,0.2066,0.2055,0.2054,0.2054,0.2054,0.2051,0.2051,0.2051,0,0,0,0,0,0,0,0,0,0,0,0,0,0.2064,0.2064,0.2069,0.2069,0.2069,0.2066,0.2066,0.2066,0.2055,0.2054,0.2054,0.2054,0.2051,0.2051,0.2051,0,0,0,0,0,0,0,0,0,0,0,0,0,0.2064,0.2064,0.2069,0.2063,0.2062,0.2066,0.2066,0.2066,0.2055,0.2054,0.2054,0.2054,0.2051,0.2051,0.2051,0.2061,0,0,0.2052,0.2052,0,0,0,0,0,0,0,0,0.2064,0.2064,0.2064,0.2063,0.2063,0.206,0.2063,0.2064,0.2055,0.2058,0.2054,0.2053,0.2054,0.2054,0.2055,0.206,0.206,0.2052,0.2052,0.2052,0.2052,0,0,0,0,0,0,0,0.2064,0.2065,0.2068,0.2064,0.2063,0.206,0.206,0.2063,0.2058,0.2057,0.2057,0.2056,0.2054,0.2054,0.2054,0.206,0.2052,0.2052,0.2052,0.2052,0.2074,0.2074,0,0,0,0,0,0,0.2065,0.2065,0.2068,0.2068,0.2063,0.2061,0.206,0.2062,0.2058,0.2057,0.2057,0.2056,0.2054,0.2054,0.2054,0.2065,0.2052,0.2052,0.2053,0.2073,0.2074,0.2074,0,0,0,0,0,0,0.2065,0.2066,0.2068,0.2066,0.2066,0.2061,0.2063,0.2062,0.2062,0.2058,0.2057,0.2058,0.2054,0.2054,0.2059,0.2065,0.2052,0.2053,0.2073,0.2074,0.2074,0.2087,0,0,0,0,0,0,0.2065,0.2066,0.2069,0.2066,0.2066,0.2073,0.2063,0.2062,0.2063,0.2062,0.2059,0.2058,0.2053,0.2059,0.2059,0.2065,0.2053,0.2072,0.2073,0.2074,0.2086,0.2088,0.209,0,0,0,0,0,0.2065,0.2073,0.207,0.207,0.2071,0.2074,0.2074,0.2068,0.2063,0.2067,0.2064,0.2058,0.2064,0.2059,0.206,0.2066,0.2072,0.2073,0.2074,0.2085,0.2088,0.209,0,0,0,0,0,0,0.2077,0.2072,0.2069,0.2076,0.2075,0.2072,0.2076,0.2071,0.2072,0.2071,0.2064,0.2064,0.207,0.2068,0.2063,0.2075,0.2067,0.2068,0.2075,0.2078,0.208,0.208,0.2053,0,0,0,0,0,0.208,0.2083,0.2079,0.2086,0.2086,0.2081,0.2082,0.2078,0.2077,0.2077,0.2074,0.2073,0.2075,0.2076,0.2078,0.2086,0.2085,0.209,0.2092,0.2093,0.2094,0.2098,0.2101,0.2078,0.2078,0.2077,0,0,0.2087,0.2085,0.2088,0.2088,0.2087,0.209,0.2081,0.2084,0.2086,0.2077,0.2082,0.208,0.2079,0.2086,0.2088,0.2084,0.21,0.2094,0.2096,0.2096,0.21,0.2102,0.2104,0.2078,0.2078,0.2078,0,0,0.2102,0.2101,0.2106,0.2106,0.2104,0.2101,0.2102,0.21,0.2098,0.2103,0.2096,0.2098,0.2101,0.2101,0.2101,0.2115,0.211,0.2116,0.2125,0.2129,0.2131,0.2133,0.2138,0.214,0.2117,0.2117,0.2117,0,0.2111,0.2115,0.211,0.2114,0.2114,0.2106,0.2112,0.2111,0.211,0.2111,0.2106,0.211,0.2109,0.2115,0.2119,0.2119,0.212,0.2116,0.2131,0.2133,0.2134,0.2139,0.2141,0.2117,0.2117,0.2117,0.2117,0,0.2126,0.213,0.2134,0.2134,0.2135,0.2139,0.2134,0.2136,0.2132,0.2129,0.2134,0.2132,0.2133,0.2134,0.213,0.214,0.2138,0.2132,0.2125,0.2137,0.2142,0.2143,0.2119,0.2118,0.2118,0.2118,0,0,0.2148,0.2145,0.2147,0.2146,0.2144,0.2146,0.2151,0.2152,0.2153,0.2153,0.2156,0.2159,0.2154,0.2154,0.215,0.2154,0.2165,0.2148,0.2148,0.2151,0.2176,0.218,0.2182,0.2162,0.2162,0.2162,0.2176,0,0.2162,0.2169,0.2165,0.2173,0.2175,0.2168,0.2172,0.2171,0.2168,0.217,0.2167,0.2169,0.2163,0.2163,0.2166,0.2163,0.217,0.2162,0.2165,0.2165,0.2165,0.2184,0.2189,0.2202,0.2178,0.2178,0.2178,0,0.2179,0.218,0.2188,0.2186,0.2186,0.219,0.219,0.2192,0.2191,0.2189,0.2189,0.2184,0.2188,0.2181,0.2186,0.2181,0.2182,0.218,0.2181,0.2181,0.2172,0.2185,0.2206,0.2208,0.2181,0.2181,0.218,0,0.2194,0.2197,0.2202,0.2202,0.2199,0.2202,0.2201,0.2199,0.22,0.2201,0.2201,0.2202,0.2202,0.2203,0.2198,0.2193,0.2204,0.2196,0.2203,0.2203,0.2205,0.2205,0.2227,0.2206,0.2206,0.2206,0.2206,0,0.221,0.2215,0.2209,0.2212,0.2218,0.2212,0.2218,0.2216,0.2215,0.2218,0.2211,0.2214,0.2208,0.221,0.2206,0.2211,0.2212,0.221,0.2209,0.2211,0.2211,0.2211,0.221,0.2206,0.2206,0.2206,0.2206,0,0.2227,0.2223,0.2229,0.2226,0.2225,0.223,0.2227,0.223,0.2227,0.2231,0.2231,0.2227,0.2229,0.2224,0.2226,0.2223,0.223,0.2228,0.2231,0.223,0.2237,0.2236,0.2259,0.2261,0.2239,0.2239,0.224,0,0.2237,0.2241,0.2239,0.2241,0.224,0.2242,0.2243,0.2238,0.2239,0.2238,0.2241,0.2243,0.2244,0.2247,0.2244,0.2245,0.2243,0.2251,0.2243,0.2244,0.2243,0.2243,0.2243,0.2252,0.2253,0.2253,0.2253,0,0.2256,0.2254,0.2256,0.2257,0.2258,0.2258,0.2258,0.226,0.2254,0.2256,0.2258,0.2259,0.2261,0.2262,0.2263,0.2261,0.2256,0.2255,0.2257,0.2259,0.226,0.2259,0.2235,0.2255,0.2255,0.2255,0.2254,0.2254,0.227,0.2273,0.2272,0.2274,0.2274,0.2274,0.2277,0.2274,0.2276,0.2277,0.2274,0.2277,0.2276,0.2276,0.2275,0.2277,0.2273,0.2276,0.2276,0.2277,0.2278,0.226,0.2277,0.2277,0.2277,0.2277,0.2277,0,0.2288,0.2287,0.2289,0.229,0.2291,0.2287,0.2286,0.2288,0.2291,0.229,0.2291,0.2294,0.2295,0.2293,0.2294,0.2296,0.2294,0.2296,0.2296,0.2296,0.2281,0.228,0.2298,0.2298,0.2298,0.2298,0.2298,0.2298,0.2298,0.2303,0.2301,0.2306,0.2305,0.2308,0.2308,0.2308,0.2308,0.2311,0.2312,0.2311,0.2309,0.231,0.2311,0.2311,0.2311,0.2315,0.2313,0.2299,0.2297,0.2295,0.2294,0.2315,0.2315,0.2328,0.2328,0.2328]},{"header":{"parameterUnit":"m.s-1","parameterCategory":1,"la1":30.2991,"la2":30.254,"lo1":-89.0895,"lo2":-89.0444,"dy":0.0017,"dx":0.0017,"nx":28,"ny":28,"refTime":"2023-10-19T09:00:00:Z","depth":0,"parameterNumber":3,"parameterNumberName":"V-component_of_WINDS"},"data":[0,0,0,0,0,0,0,0,0,0,0,0,0,0,0,0,0,0,0,0,0,0,0,0,0,0,0,0,0,0,0,0,0,0,0,0,0,0,0,0,0,0,0,0,0,0,0,0,0,0,0,0,0,0,0,0,0,0,1.0385,1.0383,0,1.0185,1.0183,1.018,0.9957,0.9954,0.9951,0.9948,0.9739,0.9737,0.9734,0,0,0,0,0,0,0,0,0,0,0,0,0,1.0573,1.057,1.0386,1.0383,1.0381,1.0185,1.0183,1.018,0.9958,0.9954,0.995,0.9946,0.974,0.9737,0.9734,0,0,0,0,0,0,0,0,0,0,0,0,0,1.0444,1.057,1.0386,1.0246,1.0232,1.0186,1.0182,1.0179,0.9959,0.9954,0.9949,0.9944,0.9741,0.9737,0.9734,0.9808,0,0,0.9722,0.972,0,0,0,0,0,0,0,0,1.0451,1.0437,1.0269,1.0256,1.024,1.0091,1.0172,1.0055,0.996,1.0062,0.9948,0.9942,0.986,0.9846,0.9819,0.9798,0.9789,0.9722,0.9719,0.9718,0.9717,0,0,0,0,0,0,0,1.0461,1.0445,1.0306,1.0267,1.0249,1.0192,1.0169,1.0149,0.9991,1.0053,1.0036,1.0016,0.9851,0.9823,0.9813,0.9786,0.9722,0.9718,0.9716,0.9715,0.9815,0.9819,0,0,0,0,0,0,1.0491,1.0453,1.0312,1.03,1.0336,1.0193,1.0167,1.0144,0.9991,0.9963,1.002,1.0006,0.9832,0.9817,0.9804,0.988,0.9718,0.9714,0.9712,0.981,0.9816,0.9821,0,0,0,0,0,0,1.0496,1.0481,1.032,1.0372,1.0347,1.0195,1.0171,1.0142,1.0114,0.9966,0.9936,1.0021,0.9828,0.981,0.9809,0.987,0.9713,0.9709,0.9804,0.9812,0.9818,1.0035,0,0,0,0,0,0,1.0502,1.0484,1.0512,1.0374,1.0346,1.033,1.0175,1.0142,1.0109,1.0089,0.9959,0.9933,0.9823,0.9816,0.9805,0.9862,0.9706,0.9798,0.9807,0.9816,1.0022,1.0049,1.0072,0,0,0,0,0,1.051,1.058,1.0514,1.0498,1.0377,1.0334,1.0317,1.019,1.0115,1.0141,1.0045,0.9937,0.9866,0.9817,0.9803,0.9861,0.9793,0.9805,0.9815,1.001,1.0044,1.0072,0,0,0,0,0,0,1.0727,1.0559,1.0484,1.0513,1.044,1.0297,1.0325,1.0229,1.0175,1.0158,1.0001,0.9974,0.9992,0.9925,0.9875,0.9924,0.9814,0.9823,0.9967,0.9997,1.0022,1.0037,0.9703,0,0,0,0,0,1.0779,1.0759,1.0612,1.0651,1.0619,1.0479,1.0455,1.0364,1.0281,1.0249,1.0153,1.0076,1.0035,1.0012,0.9967,1.0011,0.9979,1.0043,1.0069,1.009,1.01,1.0117,1.0143,0.9857,0.9857,0.9857,0,0,1.0884,1.079,1.0787,1.0693,1.0625,1.0607,1.0454,1.0442,1.0426,1.0246,1.0239,1.0167,1.007,1.0092,1.0097,1.0038,1.0171,1.0104,1.0123,1.012,1.0131,1.0158,1.0182,0.9865,0.9864,0.9862,0,0,1.1067,1.0995,1.1018,1.0954,1.0854,1.0761,1.0767,1.0638,1.0584,1.0575,1.0439,1.0418,1.0352,1.0289,1.0248,1.0408,1.0306,1.0397,1.0529,1.0548,1.057,1.0589,1.0646,1.0668,1.0407,1.0408,1.0408,0,1.1211,1.1179,1.1043,1.1038,1.1001,1.0838,1.086,1.0804,1.0695,1.0672,1.0607,1.0522,1.0445,1.0449,1.0489,1.0461,1.0462,1.0411,1.0578,1.0596,1.0612,1.0664,1.0686,1.0419,1.0418,1.0417,1.0416,0,1.136,1.134,1.1371,1.1271,1.1236,1.1246,1.111,1.1091,1.1003,1.0916,1.0909,1.0811,1.0743,1.0737,1.0651,1.0729,1.0696,1.0608,1.0493,1.0653,1.0699,1.0718,1.0436,1.0432,1.0428,1.0426,0,0,1.1674,1.1498,1.1512,1.1464,1.1342,1.1323,1.1325,1.1259,1.1246,1.1176,1.1173,1.1121,1.1038,1.0992,1.0897,1.0913,1.1045,1.0822,1.0817,1.0867,1.1125,1.1193,1.1218,1.0977,1.098,1.0983,1.1133,0,1.1834,1.1828,1.1706,1.1734,1.1713,1.1559,1.1559,1.1484,1.1404,1.1373,1.1282,1.1249,1.1142,1.1113,1.1123,1.1028,1.1095,1.1015,1.0971,1.0971,1.1001,1.1242,1.1313,1.146,1.115,1.1153,1.1155,0,1.2021,1.1963,1.199,1.1867,1.1853,1.1857,1.1787,1.176,1.1671,1.1611,1.1561,1.1453,1.1444,1.1337,1.1322,1.1271,1.1245,1.1196,1.1198,1.1189,1.1073,1.1239,1.1503,1.1526,1.1183,1.118,1.1178,0,1.2247,1.2176,1.2182,1.2146,1.2003,1.2009,1.1949,1.1855,1.1824,1.1762,1.174,1.1678,1.1645,1.1599,1.1476,1.141,1.1476,1.1359,1.1424,1.1428,1.1445,1.1445,1.1709,1.143,1.143,1.1429,1.1429,0,1.2439,1.2461,1.2282,1.2286,1.2306,1.2164,1.2187,1.2112,1.2031,1.2016,1.1878,1.1868,1.1707,1.1678,1.1582,1.1584,1.157,1.152,1.1494,1.1532,1.1539,1.1513,1.15,1.1435,1.1434,1.1433,1.1432,0,1.2695,1.2575,1.2572,1.2437,1.2403,1.2424,1.2307,1.2305,1.2216,1.22,1.2188,1.2047,1.2006,1.1879,1.1806,1.1741,1.1772,1.1723,1.1803,1.1786,1.1859,1.1854,1.2115,1.2142,1.1848,1.1851,1.1853,0,1.2825,1.2838,1.2705,1.2687,1.2633,1.2605,1.2572,1.2433,1.2405,1.2305,1.2314,1.2262,1.2213,1.2154,1.2044,1.1987,1.1936,1.2031,1.1926,1.1964,1.1936,1.1937,1.1937,1.2054,1.2058,1.2061,1.2064,0,1.3068,1.3009,1.2968,1.2907,1.2872,1.2817,1.2754,1.2746,1.259,1.2565,1.2522,1.2484,1.241,1.2359,1.2285,1.2221,1.2117,1.2098,1.211,1.2149,1.2194,1.217,1.1865,1.2092,1.209,1.2087,1.2086,1.2085,1.3264,1.3269,1.3176,1.3135,1.3073,1.3018,1.3009,1.2919,1.2881,1.281,1.273,1.2696,1.2605,1.2495,1.2439,1.241,1.2354,1.2371,1.2376,1.2382,1.24,1.22,1.2396,1.2394,1.2394,1.2393,1.2392,0,1.35,1.3433,1.3397,1.3313,1.3281,1.3187,1.3112,1.3091,1.3063,1.2988,1.2943,1.2894,1.2844,1.2732,1.2671,1.2669,1.262,1.2658,1.2656,1.2644,1.2454,1.2449,1.2699,1.2699,1.2699,1.2699,1.2699,1.2699,1.3619,1.3622,1.3552,1.3523,1.3454,1.3421,1.3387,1.3334,1.3273,1.3225,1.3184,1.3111,1.302,1.2952,1.2903,1.287,1.2854,1.2909,1.2861,1.2686,1.2657,1.2629,1.2624,1.2906,1.2907,1.3053,1.3054,1.3055]}]]